TimeCDT,TemperatureF,Dew PointF,Humidity,Sea Level PressureIn,VisibilityMPH,Wind Direction,Wind SpeedMPH,Gust SpeedMPH,PrecipitationIn,Events,Conditions,WindDirDegrees,DateUTC
12:15 AM,50.0,44.6,82,29.90,5.0,WSW,3.5,-,N/A,,Haze,250,2013-03-31 05:15:00
12:35 AM,50.5,45.0,81,29.89,5.0,West,4.6,-,N/A,,Haze,270,2013-03-31 05:35:00
12:55 AM,50.9,45.5,82,29.89,4.0,West,5.8,-,N/A,,Haze,260,2013-03-31 05:55:00
1:15 AM,51.1,45.7,82,29.88,2.0,Calm,Calm,-,N/A,,Haze,0,2013-03-31 06:15:00
1:35 AM,50.9,45.5,82,29.88,1.0,West,3.5,-,N/A,,Haze,260,2013-03-31 06:35:00
1:55 AM,50.9,45.7,82,29.88,0.8,West,3.5,-,N/A,,Haze,260,2013-03-31 06:55:00
2:15 AM,50.9,45.7,82,29.89,1.0,WSW,4.6,-,N/A,,Haze,250,2013-03-31 07:15:00
2:35 AM,51.1,46.4,84,29.89,0.5,West,4.6,-,N/A,,Haze,260,2013-03-31 07:35:00
2:55 AM,51.3,46.4,83,29.88,0.5,West,4.6,-,N/A,,Haze,260,2013-03-31 07:55:00
3:15 AM,51.3,46.4,83,29.87,0.5,West,4.6,-,N/A,,Haze,260,2013-03-31 08:15:00
3:35 AM,51.3,46.4,83,29.87,0.2,West,8.1,-,N/A,,Haze,280,2013-03-31 08:35:00
3:55 AM,51.3,46.4,83,29.87,0.2,West,6.9,-,N/A,,Haze,260,2013-03-31 08:55:00
4:15 AM,51.3,46.4,83,29.87,0.5,West,8.1,-,N/A,,Haze,260,2013-03-31 09:15:00
4:35 AM,51.1,46.4,84,29.87,0.5,West,8.1,-,N/A,,Haze,270,2013-03-31 09:35:00
4:55 AM,50.9,46.0,83,29.87,0.5,West,5.8,-,N/A,,Haze,260,2013-03-31 09:55:00
5:15 AM,50.4,45.5,83,29.87,0.5,West,8.1,-,N/A,Fog,Fog,270,2013-03-31 10:15:00
5:35 AM,50.0,45.1,83,29.87,0.5,West,6.9,-,N/A,,Haze,270,2013-03-31 10:35:00
5:55 AM,49.6,44.8,83,29.86,1.0,WNW,3.5,-,N/A,,Haze,290,2013-03-31 10:55:00
6:15 AM,49.3,44.6,84,29.87,1.5,West,6.9,-,N/A,,Overcast,280,2013-03-31 11:15:00
6:35 AM,48.9,44.1,83,29.87,2.0,WNW,5.8,-,N/A,,Haze,290,2013-03-31 11:35:00
6:55 AM,48.4,43.7,84,29.87,1.5,West,6.9,-,N/A,,Overcast,280,2013-03-31 11:55:00
7:15 AM,48.2,43.3,83,29.89,1.0,West,5.8,-,N/A,,Haze,280,2013-03-31 12:15:00
7:35 AM,48.0,43.2,83,29.89,1.2,West,5.8,-,N/A,,Haze,260,2013-03-31 12:35:00
7:55 AM,48.2,43.2,83,29.89,1.8,West,6.9,-,N/A,,Haze,280,2013-03-31 12:55:00
8:15 AM,48.4,43.7,84,29.90,1.8,West,6.9,-,N/A,,Overcast,270,2013-03-31 13:15:00
8:35 AM,48.2,43.2,83,29.89,1.0,West,8.1,-,N/A,,Haze,270,2013-03-31 13:35:00
8:55 AM,48.7,43.7,83,29.89,2.5,WNW,10.4,-,N/A,,Haze,290,2013-03-31 13:55:00
9:15 AM,50.0,42.4,75,29.88,5.0,West,9.2,-,N/A,,Haze,270,2013-03-31 14:15:00
9:35 AM,51.6,41.4,68,29.88,10.0,West,6.9,-,N/A,,Clear,270,2013-03-31 14:35:00
9:55 AM,53.6,39.6,59,29.87,10.0,West,9.2,-,N/A,,Clear,280,2013-03-31 14:55:00
10:15 AM,54.9,37.8,53,29.87,10.0,WNW,10.4,16.1,N/A,,Clear,290,2013-03-31 15:15:00
10:35 AM,56.7,38.8,51,29.87,10.0,WNW,16.1,20.7,N/A,,Scattered Clouds,290,2013-03-31 15:35:00
10:55 AM,55.6,37.9,52,29.87,10.0,WNW,12.7,19.6,N/A,,Mostly Cloudy,290,2013-03-31 15:55:00
11:15 AM,56.5,38.3,51,29.87,10.0,West,13.8,-,N/A,,Overcast,270,2013-03-31 16:15:00
11:35 AM,57.9,37.9,47,29.88,10.0,West,17.3,21.9,N/A,,Overcast,280,2013-03-31 16:35:00
11:55 AM,58.5,36.0,43,29.87,10.0,West,13.8,19.6,N/A,,Overcast,280,2013-03-31 16:55:00
12:15 PM,59.4,35.1,40,29.87,10.0,WNW,16.1,20.7,N/A,,Overcast,300,2013-03-31 17:15:00
12:35 PM,59.7,31.8,35,29.87,10.0,WNW,18.4,25.3,N/A,,Mostly Cloudy,300,2013-03-31 17:35:00
12:55 PM,60.8,28.4,29,29.87,10.0,NW,16.1,25.3,N/A,,Mostly Cloudy,310,2013-03-31 17:55:00
1:15 PM,60.1,29.7,32,29.86,10.0,WNW,16.1,24.2,N/A,,Scattered Clouds,290,2013-03-31 18:15:00
1:35 PM,61.0,28.4,29,29.86,10.0,WNW,16.1,21.9,N/A,,Scattered Clouds,300,2013-03-31 18:35:00
1:55 PM,61.9,23.0,23,29.87,10.0,WNW,15.0,29.9,N/A,,Scattered Clouds,290,2013-03-31 18:55:00
2:15 PM,61.5,23.0,23,29.87,10.0,WNW,20.7,26.5,N/A,,Clear,290,2013-03-31 19:15:00
2:35 PM,61.7,23.0,23,29.87,10.0,West,18.4,28.8,N/A,,Clear,280,2013-03-31 19:35:00
2:55 PM,60.8,19.8,21,29.87,10.0,WNW,21.9,31.1,N/A,,Clear,300,2013-03-31 19:55:00
3:15 PM,59.5,23.0,25,29.87,10.0,WNW,16.1,24.2,N/A,,Clear,300,2013-03-31 20:15:00
3:35 PM,58.8,22.1,24,29.87,10.0,WNW,20.7,25.3,N/A,,Clear,290,2013-03-31 20:35:00
3:55 PM,60.3,20.3,21,29.87,10.0,NW,13.8,28.8,N/A,,Scattered Clouds,310,2013-03-31 20:55:00
4:15 PM,60.1,18.5,20,29.87,10.0,WNW,16.1,26.5,N/A,,Scattered Clouds,300,2013-03-31 21:15:00
4:35 PM,60.1,18.1,20,29.88,10.0,WNW,17.3,28.8,N/A,,Clear,300,2013-03-31 21:35:00
4:55 PM,59.2,17.2,20,29.88,10.0,NW,17.3,25.3,N/A,,Clear,310,2013-03-31 21:55:00
5:15 PM,58.1,15.6,19,29.89,10.0,WNW,17.3,26.5,N/A,,Clear,300,2013-03-31 22:15:00
5:35 PM,57.7,17.1,20,29.90,10.0,WNW,16.1,27.6,N/A,,Clear,290,2013-03-31 22:35:00
5:55 PM,55.4,19.6,25,29.90,10.0,NW,13.8,21.9,N/A,,Clear,320,2013-03-31 22:55:00
6:15 PM,54.3,23.4,30,29.91,10.0,NW,18.4,-,N/A,,Clear,320,2013-03-31 23:15:00
6:35 PM,53.6,25.2,33,29.92,10.0,NW,15.0,20.7,N/A,,Scattered Clouds,320,2013-03-31 23:35:00
6:55 PM,51.6,24.6,35,29.93,10.0,NW,13.8,24.2,N/A,,Clear,310,2013-03-31 23:55:00
7:15 PM,50.4,25.9,39,29.93,10.0,NW,12.7,23.0,N/A,,Scattered Clouds,310,2013-04-01 00:15:00
7:35 PM,48.9,26.2,41,29.94,10.0,NW,13.8,24.2,N/A,,Scattered Clouds,320,2013-04-01 00:35:00
7:55 PM,47.7,25.3,42,29.95,10.0,WNW,13.8,18.4,N/A,,Clear,300,2013-04-01 00:55:00
8:15 PM,46.9,25.3,43,29.95,10.0,NW,10.4,16.1,N/A,,Clear,310,2013-04-01 01:15:00
8:35 PM,46.4,25.7,44,29.96,10.0,NW,10.4,17.3,N/A,,Clear,310,2013-04-01 01:35:00
8:55 PM,45.7,25.7,46,29.97,10.0,NW,9.2,-,N/A,,Clear,310,2013-04-01 01:55:00
9:15 PM,45.1,25.7,47,29.97,10.0,NW,9.2,16.1,N/A,,Clear,320,2013-04-01 02:15:00
9:35 PM,44.6,25.5,47,29.98,10.0,NW,12.7,18.4,N/A,,Clear,320,2013-04-01 02:35:00
10:15 PM,44.2,24.4,46,30.00,10.0,NW,13.8,19.6,N/A,,Mostly Cloudy,320,2013-04-01 03:15:00
10:35 PM,44.1,23.5,44,30.00,10.0,NW,15.0,19.6,N/A,,Overcast,320,2013-04-01 03:35:00
11:15 PM,42.8,23.0,46,30.01,10.0,NW,15.0,23.0,N/A,,Overcast,320,2013-04-01 04:15:00
11:35 PM,42.3,18.9,39,30.03,10.0,NW,18.4,24.2,N/A,,Overcast,310,2013-04-01 04:35:00
11:55 PM,41.9,19.2,40,30.03,10.0,NW,13.8,24.2,N/A,,Overcast,320,2013-04-01 04:55:00